Houston Hull, TX

8:13 PM CST on November 22, 2019 (GMT -0600)
Sugar Land Municipal-Hull

Weather History for KSGR - September, 2019

Change the Weather History Date:

Sunday, September 15, 2019

  Actual Average Record
Temperature  
Mean Temperature 84 °F -  
Max Temperature 96 °F 88 °F 98 °F (1997)
Min Temperature 73 °F 70 °F 56 °F (1989)
Cooling Degree Days 19    
Growing Degree Days 34 (Base 50)    
Moisture  
Dew Point 72 °F    
Average Humidity 72    
Maximum Humidity 97    
Minimum Humidity 41    
Precipitation  
Precipitation 0.00 in - - ()
Sea Level Pressure  
Sea Level Pressure 30.01 in    
Wind  
Wind Speed 5 mph (ENE)    
Max Wind Speed 14 mph    
Max Gust Speed -    
Visibility 10 miles    
Events      
Averages and records for this station are not official NWS values.
T = Trace of Precipitation, MM = Missing Value Source: NWS Daily Summary

Daily Weather History Graph

Daily Weather History Graph

Search for Another Location

Airport or City:

Astronomy

Sep. 15, 2019 Rise Set
Actual Time 7:07 AM CDT 7:28 PM CDT
Civil Twilight 6:43 AM CDT 7:51 PM CDT
Nautical Twilight 6:15 AM CDT 8:19 PM CDT
Astronomical Twilight 5:47 AM CDT 8:48 PM CDT
Moon 8:40 PM CDT (9/15) 8:16 AM CDT (9/15)
Length of Visible Light 13h 08m
Length of Day
12h 20m
Full, 98% of the Moon is Illuminated
Sep 15
Full
Sep 21
Last Quarter
Sep 28
New
Oct 5
First Quarter
Oct 13
Full

Hourly Weather History & Observations

Time (CDT) Temp. Heat Index Dew Point Humidity Pressure Visibility Wind Dir Wind Speed Gust Speed Precip Events Conditions
12:53 AM 73.9 °F - 72.0 °F 93% 30.06 in 10.0 mi Calm Calm - N/A   Clear
1:53 AM 73.9 °F - 73.0 °F 97% 30.05 in 10.0 mi Calm Calm - N/A   Clear
2:53 AM 73.0 °F - 72.0 °F 96% 30.04 in 10.0 mi NNW 3.5 mph - N/A   Clear
3:28 AM 73.9 °F - 73.0 °F 97% 30.03 in 10.0 mi North 4.6 mph - N/A   Partly Cloudy
3:53 AM 73.9 °F - 73.0 °F 97% 30.03 in 10.0 mi North 3.5 mph - N/A   Clear
4:53 AM 73.9 °F - 72.0 °F 93% 30.03 in 10.0 mi North 3.5 mph - N/A   Clear
5:53 AM 73.0 °F - 72.0 °F 96% 30.03 in 10.0 mi North 4.6 mph - N/A   Clear
6:53 AM 73.0 °F - 72.0 °F 96% 30.03 in 10.0 mi WNW 3.5 mph - N/A   Clear
7:53 AM 75.0 °F - 73.0 °F 94% 30.03 in 10.0 mi North 3.5 mph - N/A   Clear
8:49 AM 82.4 °F 88.2 °F 73.4 °F 74% 30.03 in 10.0 mi NNE 8.1 mph - N/A   Partly Cloudy
8:53 AM 82.0 °F 88.6 °F 75.0 °F 79% 30.04 in 10.0 mi NNE 8.1 mph - N/A   Partly Cloudy
9:53 AM 87.1 °F 96.3 °F 75.0 °F 67% 30.04 in 10.0 mi NE 10.4 mph - N/A   Clear
10:53 AM 90.0 °F 96.9 °F 72.0 °F 55% 30.04 in 10.0 mi NE 9.2 mph - N/A   Clear
11:53 AM 89.1 °F 93.7 °F 69.1 °F 52% 30.04 in 10.0 mi East 13.8 mph - N/A   Scattered Clouds
12:53 PM 91.9 °F 97.4 °F 70.0 °F 48% 30.02 in 10.0 mi ESE 10.4 mph - N/A   Partly Cloudy
1:53 PM 93.0 °F 97.9 °F 69.1 °F 45% 29.99 in 10.0 mi East 9.2 mph - N/A   Scattered Clouds
2:53 PM 95.0 °F 100.7 °F 69.1 °F 43% 29.96 in 10.0 mi ESE 12.7 mph - N/A   Clear
3:53 PM 95.0 °F 99.5 °F 68.0 °F 41% 29.95 in 10.0 mi East 13.8 mph - N/A   Mostly Cloudy
4:53 PM 93.9 °F 99.1 °F 69.1 °F 44% 29.94 in 10.0 mi East 8.1 mph - N/A   Partly Cloudy
5:53 PM 93.0 °F 97.4 °F 68.0 °F 44% 29.94 in 10.0 mi ESE 9.2 mph - N/A   Partly Cloudy
6:53 PM 91.0 °F 95.6 °F 69.1 °F 48% 29.95 in 10.0 mi ESE 11.5 mph - N/A   Partly Cloudy
7:53 PM 87.1 °F 92.8 °F 71.1 °F 59% 29.96 in 10.0 mi SSE 10.4 mph - N/A   Clear
8:53 PM 82.9 °F 88.0 °F 72.0 °F 69% 29.97 in 10.0 mi SSE 6.9 mph - N/A   Clear
9:53 PM 81.0 °F 85.8 °F 73.0 °F 77% 29.99 in 10.0 mi ESE 3.5 mph - N/A   Partly Cloudy
10:53 PM 80.1 °F 83.8 °F 72.0 °F 76% 29.99 in 10.0 mi Calm Calm - N/A   Mostly Cloudy
11:53 PM 75.9 °F - 73.0 °F 91% 29.99 in 10.0 mi Calm Calm - N/A   Clear